{"data":{"norad_id":66169,"intl_designator":"2025-240Z","name":"STARLINK-35638","alt_names":[],"object_type":"PAYLOAD","status":"ACTIVE","operator":null,"country":"US","launch_date":"2025-10-25","launch_site_code":"AFWTR","launch_vehicle":null,"mission":null,"orbit_class":"UNKNOWN","rcs_meters":null,"size_class":null,"mass_kg":null,"dimensions":null,"purposes":["comms"],"wikipedia_slug":null,"has_3d_model":false,"image_url":null,"decayed_at":null,"tle_current":{"epoch":"2026-09-20T22:16:27.225696Z","epoch_age_seconds":63440,"freshness":"FRESH","line1":"1 66169U 25240Z   26263.92809289  .00018300  00000+0  55132-3 0  9997","line2":"2 66169  53.1581 233.5764 0000581  56.0722 304.0336 15.34406282 51919","mean_motion":15.34406282,"eccentricity":5.81e-5,"inclination_deg":53.1581,"raan_deg":233.5764,"arg_perigee_deg":56.0722,"mean_anomaly_deg":304.0336,"bstar":0.00055132,"rev_number":5191,"period_min":93.847373860009,"perigee_km":462.28711710979,"apogee_km":463.08202057609,"semimajor_km":6840.8215688429,"source":"CELESTRAK","updated_at":"2026-09-21T09:00:35.832072Z"}}}